Weather History for Bradford, PA

Change the Weather History Date:

Wednesday, August 29, 2012

  Actual Average Record
Temperature  
Mean Temperature 62 °F 62 °F  
Max Temperature 72 °F 74 °F 89 °F (1991)
Min Temperature 48 °F 50 °F 25 °F (1986)
Degree Days  
Heating Degree Days 4 1  
Month to date heating degree days 21  
Since 1 June heating degree days 230  
Since 1 July heating degree days 85  
Cooling Degree Days 0 1  
Month to date cooling degree days 50  
Year to date cooling degree days 174  
Since 1 June cooling degree days 164  
Growing Degree Days 12 (Base 50)    
Moisture  
Dew Point 52 °F    
Average Humidity 80    
Maximum Humidity 94    
Minimum Humidity 44    
Precipitation  
Precipitation 0.00 in 0.12 in 1.51 in (2006)
Month to date precipitation 3.86  
Year to date precipitation 29.70  
Sea Level Pressure  
Sea Level Pressure 30.07 in    
Wind  
Wind Speed 4 mph (NNW)    
Max Wind Speed 9 mph    
Max Gust Speed -    
Visibility 6 miles    
Events Fog , Rain    
T = Trace of Precipitation, MM = Missing Value Source: NWS Daily Summary

Daily Weather History Graph

Daily Weather History Graph

Search for Another Location

Airport:

Trip Planner

Search our weather history database for the weather conditions in past years. The results will help you decide how hot, cold, wet, or windy it might be!

Date:

Astronomy

Aug. 29, 2012 Rise Set
Actual Time 6:37 AM EDT 7:52 PM EDT
Civil Twilight 6:08 AM EDT 8:20 PM EDT
Nautical Twilight 5:34 AM EDT 8:55 PM EDT
Astronomical Twilight 4:58 AM EDT 9:31 PM EDT
Moon 6:32 PM EDT (8/29) 4:30 AM EDT (8/29)
Length of Visible Light 14h 11m
Length of Day
13h 14m
Waxing Gibbous, 96% of the Moon is Illuminated
Aug 29
Waxing Gibbous
Aug 31
Full
Sep 8
Last Quarter
Sep 15
New
Sep 22
First Quarter

Hourly Weather History & Observations

Time (EDT) Temp. Dew Point Humidity Pressure Visibility Wind Dir Wind Speed Gust Speed Precip Events Conditions
12:25 AM 60.1 °F 55.9 °F 86% 30.07 in 9.0 mi Variable 3.5 mph - N/A   Overcast
12:53 AM 61.0 °F 57.0 °F 87% 30.03 in 10.0 mi Calm Calm - N/A   Overcast
1:29 AM 61.0 °F 57.0 °F 87% 30.07 in 9.0 mi Calm Calm - 0.00 in Rain Light Rain
1:53 AM 61.0 °F 55.9 °F 83% 30.03 in 10.0 mi Calm Calm - 0.00 in   Overcast
2:53 AM 60.1 °F 55.9 °F 86% 30.03 in 10.0 mi Calm Calm - N/A   Overcast
3:53 AM 59.0 °F 55.0 °F 87% 30.03 in 6.0 mi NW 3.5 mph - N/A   Overcast
4:04 AM 57.9 °F 55.0 °F 90% 30.07 in 5.0 mi North 3.5 mph - N/A   Overcast
4:11 AM 57.9 °F 55.0 °F 90% 30.06 in 2.5 mi NNW 4.6 mph - N/A   Overcast
4:24 AM 57.0 °F 55.0 °F 93% 30.06 in 6.0 mi NNW 4.6 mph - N/A   Overcast
4:46 AM 55.9 °F 54.0 °F 93% 30.06 in 1.8 mi North 3.5 mph - N/A   Mostly Cloudy
4:53 AM 55.9 °F 54.0 °F 93% 30.02 in 0.5 mi Calm Calm - N/A Fog Fog
5:05 AM 55.9 °F 54.0 °F 93% 30.06 in 0.2 mi NNW 3.5 mph - N/A Fog Fog
5:28 AM 54.0 °F 52.0 °F 93% 30.06 in 0.8 mi NNW 5.8 mph - N/A   Mist
5:33 AM 54.0 °F 52.0 °F 93% 30.06 in 2.5 mi North 4.6 mph - N/A   Mostly Cloudy
5:40 AM 54.0 °F 52.0 °F 93% 30.06 in 6.0 mi NNW 4.6 mph - N/A   Mostly Cloudy
5:48 AM 53.6 °F 51.8 °F 94% 30.06 in 8.0 mi North 4.6 mph - N/A   Scattered Clouds
5:53 AM 54.0 °F 51.1 °F 90% 30.03 in 5.0 mi North 4.6 mph - N/A   Scattered Clouds
5:58 AM 54.0 °F 52.0 °F 93% 30.06 in 2.5 mi North 3.5 mph - N/A   Mostly Cloudy
6:08 AM 54.0 °F 52.0 °F 93% 30.06 in 1.2 mi North 4.6 mph - N/A   Mostly Cloudy
6:19 AM 55.0 °F 53.1 °F 93% 30.06 in 0.5 mi North 4.6 mph - N/A Fog Fog
6:26 AM 54.0 °F 52.0 °F 93% 30.06 in 0.2 mi North 4.6 mph - N/A Fog Fog
6:42 AM 54.0 °F 52.0 °F 93% 30.07 in 0.8 mi NNW 4.6 mph - N/A   Mist
6:53 AM 54.0 °F 51.1 °F 90% 30.04 in 0.5 mi NNW 4.6 mph - N/A Fog Fog
7:05 AM 54.0 °F 52.0 °F 93% 30.07 in 0.2 mi NW 4.6 mph - N/A Fog Fog
7:35 AM 54.0 °F 52.0 °F 93% 30.08 in 0.5 mi NNW 4.6 mph - N/A Fog Fog
7:50 AM 53.6 °F 51.8 °F 94% 30.08 in 1.5 mi NNW 4.6 mph - N/A   Overcast
7:53 AM 55.0 °F 52.0 °F 89% 30.06 in 1.8 mi NNW 5.8 mph - N/A   Overcast
8:18 AM 55.0 °F 52.0 °F 89% 30.09 in 3.0 mi NNW 5.8 mph - N/A   Overcast
8:38 AM 55.0 °F 52.0 °F 89% 30.09 in 10.0 mi North 4.6 mph - N/A   Overcast
8:53 AM 55.9 °F 53.1 °F 90% 30.08 in 10.0 mi North 4.6 mph - N/A   Overcast
9:01 AM 55.9 °F 53.1 °F 90% 30.09 in 10.0 mi NNW 4.6 mph - N/A   Overcast
9:28 AM 59.0 °F 53.1 °F 81% 30.09 in 10.0 mi NW 6.9 mph - N/A   Scattered Clouds
9:53 AM 61.0 °F 53.1 °F 75% 30.08 in 10.0 mi Variable 6.9 mph - N/A   Partly Cloudy
10:53 AM 63.0 °F 53.1 °F 70% 30.09 in 10.0 mi North 6.9 mph - N/A   Scattered Clouds
11:04 AM 66.0 °F 54.0 °F 65% 30.11 in 10.0 mi NNW 8.1 mph - N/A   Mostly Cloudy
11:53 AM 64.9 °F 51.1 °F 61% 30.09 in 10.0 mi Variable 6.9 mph - N/A   Mostly Cloudy
12:07 PM 66.9 °F 51.1 °F 57% 30.12 in 10.0 mi North 9.2 mph - N/A   Scattered Clouds
12:53 PM 69.1 °F 50.0 °F 51% 30.08 in 10.0 mi Variable 5.8 mph - N/A   Mostly Cloudy
1:53 PM 69.1 °F 48.9 °F 49% 30.07 in 10.0 mi Variable 4.6 mph - N/A   Clear
2:53 PM 71.1 °F 50.0 °F 47% 30.06 in 10.0 mi NNW 9.2 mph - N/A   Clear
3:53 PM 71.1 °F 48.9 °F 45% 30.04 in 10.0 mi Variable 6.9 mph - N/A   Clear
4:53 PM 72.0 °F 48.9 °F 44% 30.04 in 10.0 mi Variable 6.9 mph - N/A   Clear
5:53 PM 71.1 °F 48.0 °F 44% 30.04 in 10.0 mi NW 8.1 mph - N/A   Clear
6:53 PM 68.0 °F 48.0 °F 49% 30.05 in 10.0 mi NW 8.1 mph - N/A   Clear
7:53 PM 62.1 °F 48.0 °F 60% 30.06 in 10.0 mi NW 4.6 mph - N/A   Clear
8:53 PM 57.0 °F 50.0 °F 77% 30.08 in 10.0 mi Calm Calm - N/A   Clear
9:53 PM 55.9 °F 48.9 °F 77% 30.09 in 10.0 mi NW 3.5 mph - N/A   Clear
10:53 PM 51.1 °F 48.0 °F 89% 30.11 in 10.0 mi Calm Calm - N/A   Clear
11:53 PM 48.9 °F 46.0 °F 90% 30.12 in 5.0 mi Calm Calm - N/A   Clear